Vertical_Velocity
-0 -0 -0 -0 -1 0 1 2 2 2 2 1 1 0 0 0 0 0 0 1 1 2 2 2 1 0 -0 -1 -1 -0 -0 -0 -0 -0 -0 -0 -0 -0 -1 -1 -1 -1 -1 -1 -1 -1 -1 -2 -2 -2 -2 -2 -2 -2 -2 -2 -2 -2 -2 -2 -2 -2 -2 -2 -3 -3 -3 -3 -3
-1 -0 0 0 0 1 2 3 2 1 1 1 1 2 1 1 1 0 1 1 1 1 1 1 0 -1 -1 -1 -1 -0 -0 -0 -0 -0 -1 -0 -0 -0 -1 -1 -1 -1 -1 -1 -1 -1 -1 -2 -2 -2 -2 -2 -2 -2 -2 -2 -2 -2 -2 -2 -2 -2 -2 -2 -2 -2 -2 -3 -3
0 1 1 -0 -0 -0 0 0 0 0 1 1 1 2 2 1 1 1 2 2 2 2 1 -0 -1 -1 -1 -1 -0 -0 -0 -0 -0 -0 -1 -1 -1 -1 -1 -1 -1 -1 -1 -1 -1 -1 -1 -2 -2 -2 -2 -2 -2 -2 -2 -2 -2 -2 -2 -2 -2 -3 -3 -3 -3 -3 -3 -3 -3
1 -0 -1 -2 -2 -2 -0 1 2 2 2 1 1 1 1 1 2 2 2 2 2 0 -0 -1 -1 -1 -1 -0 -0 -0 -0 -0 -0 -1 -1 -1 -1 -1 -1 -1 -1 -1 -1 -1 -1 -1 -1 -1 -2 -2 -1 -2 -2 -2 -2 -2 -2 -2 -3 -3 -3 -3 -3 -3 -3 -3 -3 -3 -3
-1 -2 -2 -2 -1 1 4 5 5 4 3 2 1 0 -0 0 1 1 1 1 -0 -0 -0 0 -0 -0 -0 0 0 -0 -0 -0 -0 -1 -1 -1 -1 -1 -1 -1 -1 -1 -1 -1 -1 -1 -1 -2 -1 -1 -1 -1 -1 -2 -2 -2 -2 -2 -3 -3 -3 -3 -3 -3 -4 -4 -3 -3 -3
-2 -1 -0 1 3 5 6 6 5 4 2 1 0 -1 -1 -1 -0 -0 -1 -1 -0 0 1 0 -0 -0 -0 -0 -0 -0 -0 -1 -1 -1 -1 -1 -1 -1 -1 -1 -1 -1 -1 -2 -1 -2 -2 -2 -2 -2 -1 -1 -1 -1 -1 -1 -2 -2 -2 -3 -3 -3 -3 -3 -4 -4 -4 -4 -4
0 1 1 2 3 4 4 4 4 3 1 1 0 -0 -0 -0 -0 -0 -0 0 1 0 -0 -1 -1 -1 -1 -1 -1 -1 -1 -0 -0 -1 -1 -1 -1 -1 -1 -1 -1 -1 -2 -2 -2 -2 -2 -2 -3 -3 -2 -2 -2 -1 -1 -1 -1 -1 -2 -2 -2 -2 -3 -3 -3 -4 -4 -4 -4
3 3 3 3 3 3 3 3 2 1 0 -0 0 1 1 2 1 1 1 1 0 -1 -1 -1 -1 -1 -1 -0 -1 -0 -0 -0 -0 -1 -1 -2 -2 -2 -2 -2 -2 -2 -2 -2 -2 -2 -2 -3 -3 -3 -3 -3 -2 -2 -2 -1 -1 -1 -1 -1 -2 -2 -2 -2 -3 -3 -3 -3 -3
2 2 3 4 4 4 4 3 1 0 -0 0 1 2 3 3 2 1 0 -1 -1 -0 -0 -0 -0 -0 -0 -0 -0 -0 -0 -0 -1 -1 -1 -2 -2 -2 -2 -2 -2 -2 -2 -2 -2 -2 -2 -3 -3 -3 -3 -3 -3 -3 -2 -2 -1 -1 -1 -1 -1 -1 -1 -2 -2 -2 -2 -2 -3
-2 -1 1 3 3 4 3 3 2 2 2 3 3 3 3 2 2 0 -0 -0 0 0 -0 -1 -0 -0 -0 -1 -1 -0 -0 -0 -1 -1 -1 -2 -2 -2 -2 -2 -1 -2 -2 -2 -2 -2 -2 -2 -2 -3 -3 -3 -3 -3 -3 -2 -2 -1 -1 -1 -1 -1 -1 -1 -1 -1 -2 -2 -2
-1 0 1 2 2 3 3 3 3 3 3 4 3 3 2 2 1 1 1 1 0 -0 -1 -1 -1 -1 -1 -1 -1 -0 -0 -0 -0 -1 -1 -2 -2 -1 -1 -1 -1 -1 -1 -1 -1 -2 -2 -2 -2 -2 -2 -3 -3 -4 -4 -3 -2 -2 -2 -1 -1 -1 -1 -1 -1 -1 -1 -2 -2
3 4 4 4 4 4 3 2 2 2 2 2 2 2 2 1 2 1 1 0 -0 -1 -0 -0 -0 -1 -1 -1 -0 -0 0 -0 -0 -1 -1 -1 -1 -1 -1 -1 -1 -1 -1 -1 -1 -1 -1 -1 -1 -2 -2 -3 -3 -4 -4 -4 -4 -3 -3 -2 -2 -1 -1 -2 -1 -1 -1 -2 -2
4 5 5 6 5 4 3 2 2 1 1 1 1 1 2 2 2 2 1 0 0 0 0 0 0 -0 -1 -1 -0 -0 -0 -0 -0 -0 -1 -1 -1 -1 -1 -1 -0 -0 -0 -1 -0 -0 -0 -1 -1 -1 -1 -2 -2 -3 -4 -5 -5 -5 -4 -4 -3 -3 -2 -2 -2 -2 -2 -2 -2
4 4 4 3 3 2 2 2 1 1 1 1 1 2 3 3 2 1 1 1 1 1 1 1 0 -0 -1 -1 -0 -0 0 0 -0 -0 -1 -1 -1 -1 -0 -0 -0 -0 -0 -0 -0 -0 -0 -0 -0 -0 -0 -0 -1 -1 -2 -3 -4 -5 -5 -5 -4 -4 -3 -3 -2 -2 -2 -2 -2
3 2 2 2 2 1 1 1 0 0 1 2 2 3 3 3 2 1 2 2 2 1 1 1 0 -0 -0 -0 0 0 0 0 -0 -1 -1 -1 -1 -1 -0 -0 -0 -0 -0 -0 -0 0 0 0 0 0 1 1 1 1 0 -1 -2 -3 -4 -4 -4 -4 -3 -3 -2 -2 -2 -2 -2
1 1 1 1 1 0 0 0 0 1 1 2 2 3 3 3 2 2 2 2 1 1 1 1 0 0 0 0 0 0 0 0 -0 -1 -1 -1 -1 -0 0 0 0 0 0 0 1 1 1 1 1 1 1 2 2 2 2 1 0 -1 -2 -3 -3 -3 -3 -2 -2 -2 -2 -2 -2
-0 -0 -0 -1 -1 -0 -0 0 1 1 1 2 2 3 3 3 3 3 2 2 1 1 1 1 1 0 0 0 0 0 0 -0 -0 -0 -0 -0 0 1 1 1 1 1 1 1 2 2 2 1 1 1 1 2 2 2 2 2 2 1 0 -0 -1 -1 -2 -2 -2 -2 -2 -2 -2
-1 -1 -1 -1 -0 -0 0 1 1 2 2 2 2 2 3 3 4 3 3 2 2 2 2 2 1 1 1 1 0 0 0 0 0 1 1 2 2 2 2 2 2 2 2 2 2 2 1 1 1 1 1 2 2 2 2 3 2 2 2 1 0 -0 -1 -1 -2 -2 -2 -2 -2
-1 -0 -0 -0 -0 1 2 2 3 3 3 3 3 4 4 4 4 4 4 3 3 3 3 3 2 2 2 2 1 1 2 2 2 2 2 3 3 2 2 2 2 2 2 2 2 2 1 0 0 0 1 1 2 2 2 2 2 2 1 1 1 0 -0 -1 -1 -1 -2 -1 -2
1 0 -0 -0 1 2 3 3 4 4 5 5 5 5 4 4 5 5 4 3 4 4 4 3 2 2 2 2 2 2 2 3 3 3 3 3 3 2 2 2 2 2 2 2 2 1 1 0 0 0 0 1 1 2 2 2 2 1 1 1 0 -0 -0 -1 -1 -1 -1 -1 -1
1 1 2 3 4 4 4 4 5 6 6 6 5 5 4 5 5 5 5 4 5 5 5 3 3 3 3 3 3 3 3 3 4 4 3 3 3 3 3 2 2 2 2 2 2 2 1 1 1 1 1 1 1 2 2 2 2 1 1 0 0 -0 -0 -0 -0 -1 -1 -1 -1
2 4 5 6 6 5 5 5 6 6 6 5 5 5 5 6 6 6 6 6 6 6 5 4 4 4 4 4 4 4 4 4 4 4 4 4 4 3 3 2 2 2 2 2 2 2 2 2 2 2 1 2 1 2 2 2 1 1 1 1 0 0 0 -0 -0 -0 -0 -1 -1
4 5 6 6 5 5 5 5 5 5 5 5 5 5 5 5 6 6 6 6 5 5 5 4 5 6 6 5 5 5 4 4 4 4 4 4 3 3 2 2 2 2 2 2 3 3 3 2 2 2 2 2 1 1 1 1 1 1 1 0 0 0 0 0 -0 -0 -0 -0 -0
6 5 5 4 4 3 2 3 3 4 4 4 4 4 4 5 5 5 5 4 4 4 4 5 5 6 6 5 5 4 4 4 4 4 4 4 3 2 2 2 2 3 3 2 3 3 3 2 2 2 2 2 1 1 1 1 1 1 1 0 0 0 0 0 0 0 -0 -0 -0
4 4 3 2 1 1 1 2 2 3 3 3 4 4 5 5 4 4 4 4 4 4 4 4 5 5 5 4 4 4 4 5 4 4 4 3 3 2 2 2 3 3 3 3 3 3 2 2 2 2 1 1 1 1 1 1 1 1 0 0 0 0 -0 -0 -0 -0 -0 -0 -1
3 2 2 1 1 1 2 2 2 3 4 4 5 5 5 4 4 4 5 4 4 4 4 4 4 4 4 3 4 4 4 4 4 4 3 3 3 2 2 2 2 3 3 3 3 3 3 2 2 2 1 1 1 1 1 0 1 1 0 0 0 0 -0 -0 -1 -1 -1 -0 -1
2 1 1 1 2 2 3 3 3 4 4 4 4 4 3 4 4 5 5 4 3 3 3 4 3 3 3 4 4 4 4 3 4 4 4 3 3 3 3 3 2 2 2 3 3 3 2 2 2 2 1 1 1 1 1 1 0 0 1 0 0 0 0 -0 -1 -1 -1 -1 -1
1 1 2 3 3 3 3 4 3 3 2 2 2 3 4 4 5 4 4 3 3 3 4 3 2 2 3 4 4 4 4 4 4 4 4 4 4 3 3 3 2 2 2 2 2 2 2 2 2 2 2 1 1 1 1 1 0 0 0 1 0 0 0 0 -1 -1 -1 -1 -1
2 3 3 3 3 3 3 2 2 2 2 2 3 4 4 4 3 3 2 2 3 3 3 2 3 4 5 5 4 4 4 5 4 4 4 4 4 3 3 2 2 2 2 2 2 2 2 2 2 2 2 2 2 1 1 1 1 1 1 1 1 0 0 -0 -0 -1 -1 -1 -1
4 4 4 4 4 3 3 2 2 3 3 3 3 3 2 2 2 2 2 3 4 4 4 4 6 7 7 5 5 6 6 5 4 5 5 4 4 3 3 3 2 2 2 2 2 2 2 2 2 2 2 2 2 2 1 1 1 1 1 0 0 0 0 -0 -0 -0 -0 -0 -0
4 4 4 4 4 3 3 3 4 3 3 3 2 2 2 2 2 3 4 5 6 6 6 7 8 7 6 5 6 6 6 4 5 5 5 4 4 3 3 3 2 2 1 1 2 2 2 2 2 2 2 2 2 2 2 1 1 1 1 0 0 0 0 0 0 0 0 -0 -0
5 5 4 4 3 3 3 4 3 3 3 3 3 3 4 4 4 5 6 6 6 6 7 7 7 6 6 6 6 5 5 4 4 4 4 4 4 3 2 3 2 2 1 2 2 2 2 2 2 2 2 2 2 2 2 1 1 1 0 0 -0 -0 -0 0 0 0 0 0 0
5 5 4 4 3 3 3 3 4 4 4 5 5 5 5 5 6 6 6 6 6 6 6 6 6 6 6 6 5 5 4 4 3 3 3 4 3 3 3 3 2 1 2 2 3 3 2 2 2 3 2 2 2 2 1 1 1 1 0 0 -0 -0 0 0 0 0 0 0 -0
6 5 5 4 4 4 4 5 5 6 6 6 6 6 6 6 6 6 5 5 6 6 6 6 6 6 5 4 4 4 3 2 3 3 3 3 3 3 3 3 2 2 2 4 3 3 3 3 3 3 3 2 2 2 1 1 1 0 0 0 0 0 0 0 0 0 0 -0 -0
8 7 7 7 6 6 7 7 7 7 7 7 7 6 6 6 6 6 6 6 6 7 6 6 5 4 3 3 2 2 2 2 3 3 3 3 4 4 4 3 2 2 3 4 4 3 3 3 3 3 3 2 2 1 1 1 1 0 0 0 0 0 0 0 0 0 0 0 0
11 10 10 9 9 9 9 8 8 8 7 7 7 6 6 6 6 6 6 6 6 6 5 4 3 3 3 3 2 3 3 4 4 4 4 4 5 5 4 3 3 3 3 4 4 3 3 2 3 3 3 2 1 1 1 1 1 1 0 1 0 0 -0 -0 -0 -0 0 0 1
11 11 10 10 10 9 9 8 8 7 7 6 6 6 6 6 6 5 5 5 5 5 4 3 3 3 3 3 4 4 5 5 6 5 5 5 5 5 4 4 3 3 3 4 3 3 2 2 2 2 2 2 1 1 1 1 1 1 1 0 -0 -1 -1 -1 -0 0 0 1 1
10 9 9 9 8 8 7 7 6 6 6 6 5 5 5 5 5 5 5 5 5 5 5 4 5 5 5 5 6 6 6 6 6 6 5 5 4 4 4 4 3 3 3 3 3 2 2 1 2 2 2 2 1 1 1 1 1 1 1 -0 -1 -1 -1 -1 -0 0 1 1 0
8 8 8 7 6 6 6 6 5 5 5 6 6 6 6 6 6 6 5 5 5 5 6 6 6 6 6 6 6 6 6 6 5 5 5 4 3 3 4 4 3 3 3 3 3 2 2 1 2 2 2 2 1 1 1 1 1 1 1 0 -0 -1 -1 -1 -0 -0 0 1 0
8 7 7 6 6 5 5 5 5 5 5 6 6 7 7 7 6 5 5 6 6 6 6 6 5 5 5 6 6 6 5 5 4 4 4 3 3 3 3 4 3 3 2 2 2 2 2 1 1 2 2 1 1 1 2 2 2 2 1 0 -0 -1 -1 -1 -0 -0 0 1 0
8 7 7 6 5 5 5 5 5 5 6 6 7 7 6 5 5 6 6 6 6 6 6 6 5 5 5 5 5 5 5 4 4 4 4 4 3 3 3 3 3 2 2 2 2 2 2 2 1 1 1 1 1 1 1 2 2 2 1 0 -0 -1 -1 -1 -1 -0 0 1 0
Height
3103 3105 3106 3107 3109 3110 3112 3114 3116 3117 3118 3119 3121 3122 3123 3124 3125 3126 3127 3128 3130 3131 3131 3132 3133 3133 3134 3135 3135 3136 3137 3137 3138 3138 3139 3140 3140 3141 3141 3141 3142 3142 3143 3143 3143 3144 3144 3144 3144 3145 3145 3145 3145 3145 3145 3145 3145 3146 3146 3146 3146 3146 3146 3146 3146 3146 3146 3146 3146
3101 3102 3104 3105 3107 3109 3111 3112 3114 3115 3116 3117 3119 3120 3121 3123 3124 3125 3126 3127 3128 3129 3130 3131 3131 3131 3132 3133 3134 3135 3135 3136 3136 3137 3138 3138 3139 3139 3140 3140 3141 3141 3141 3142 3142 3142 3143 3143 3143 3144 3144 3144 3144 3144 3144 3144 3144 3145 3145 3145 3145 3145 3145 3145 3145 3145 3145 3145 3145
3099 3100 3101 3103 3105 3106 3108 3110 3111 3113 3114 3116 3117 3118 3120 3121 3122 3123 3125 3126 3126 3127 3128 3129 3129 3130 3131 3131 3132 3133 3134 3135 3135 3136 3136 3137 3137 3138 3138 3139 3139 3140 3140 3141 3141 3141 3141 3142 3142 3142 3143 3143 3143 3143 3143 3143 3143 3143 3144 3144 3144 3144 3144 3144 3144 3144 3144 3144 3144
3096 3098 3099 3101 3102 3104 3106 3108 3110 3111 3112 3114 3115 3117 3118 3119 3121 3122 3123 3124 3125 3125 3126 3127 3127 3128 3129 3130 3131 3131 3132 3133 3134 3134 3135 3136 3136 3136 3137 3137 3138 3138 3139 3139 3140 3140 3140 3141 3141 3141 3141 3142 3142 3142 3142 3142 3142 3142 3142 3142 3142 3142 3142 3143 3143 3143 3143 3143 3143
3094 3095 3097 3098 3100 3102 3105 3106 3108 3110 3111 3112 3114 3115 3116 3117 3119 3120 3121 3122 3123 3123 3124 3125 3126 3126 3127 3128 3129 3130 3131 3131 3132 3133 3133 3134 3135 3135 3136 3136 3136 3137 3137 3138 3138 3138 3139 3139 3140 3140 3140 3141 3141 3141 3141 3141 3141 3141 3141 3141 3141 3141 3141 3141 3141 3141 3141 3141 3141
3092 3093 3095 3097 3099 3101 3103 3105 3106 3108 3109 3110 3112 3113 3114 3116 3116 3118 3119 3120 3121 3122 3123 3123 3124 3125 3126 3126 3127 3128 3129 3130 3131 3131 3132 3132 3133 3134 3134 3135 3135 3135 3136 3136 3136 3137 3137 3138 3138 3138 3139 3139 3139 3140 3140 3140 3140 3140 3140 3140 3140 3140 3140 3140 3140 3140 3140 3141 3141
3090 3091 3093 3095 3097 3099 3101 3103 3104 3106 3107 3108 3110 3111 3112 3114 3115 3116 3117 3118 3119 3120 3121 3121 3122 3123 3124 3125 3126 3126 3127 3128 3129 3130 3130 3131 3131 3132 3132 3133 3133 3134 3134 3135 3135 3135 3136 3136 3136 3137 3137 3137 3138 3138 3138 3138 3139 3139 3139 3139 3139 3139 3139 3139 3139 3139 3139 3139 3139
3088 3090 3091 3093 3095 3097 3099 3101 3102 3103 3105 3106 3108 3109 3111 3112 3113 3115 3116 3116 3117 3118 3119 3120 3121 3121 3122 3123 3124 3125 3126 3126 3127 3128 3128 3129 3130 3130 3131 3131 3131 3132 3132 3133 3133 3134 3134 3134 3135 3135 3135 3136 3136 3136 3137 3137 3137 3137 3137 3138 3138 3138 3138 3138 3138 3138 3138 3138 3138
3086 3087 3089 3091 3093 3095 3097 3098 3100 3101 3102 3104 3106 3108 3109 3111 3112 3113 3114 3115 3115 3116 3117 3118 3119 3120 3121 3122 3122 3123 3124 3125 3125 3126 3126 3127 3128 3128 3129 3129 3130 3130 3131 3131 3131 3132 3132 3132 3133 3133 3133 3134 3134 3135 3135 3135 3136 3136 3136 3136 3136 3136 3136 3136 3136 3136 3136 3137 3137
3083 3085 3087 3089 3091 3093 3095 3096 3098 3099 3101 3103 3104 3106 3107 3108 3110 3111 3111 3112 3113 3114 3115 3116 3117 3118 3119 3120 3121 3121 3122 3123 3124 3124 3125 3125 3126 3126 3127 3127 3128 3128 3129 3129 3129 3130 3130 3131 3131 3131 3131 3132 3132 3133 3133 3133 3134 3134 3134 3135 3135 3135 3135 3135 3135 3135 3135 3135 3135
3081 3082 3084 3086 3088 3090 3092 3094 3095 3097 3099 3101 3102 3104 3105 3106 3107 3108 3109 3111 3111 3112 3113 3114 3115 3116 3117 3118 3119 3120 3121 3121 3122 3122 3123 3124 3124 3125 3125 3126 3126 3126 3127 3127 3128 3128 3128 3129 3129 3129 3130 3130 3130 3131 3131 3131 3132 3132 3132 3133 3133 3133 3133 3133 3133 3133 3133 3133 3134
3078 3080 3082 3084 3086 3088 3090 3091 3093 3095 3096 3098 3100 3101 3103 3104 3105 3106 3107 3108 3109 3110 3111 3112 3113 3114 3115 3116 3117 3118 3119 3119 3120 3121 3121 3122 3122 3123 3123 3124 3124 3125 3125 3126 3126 3126 3126 3127 3127 3127 3128 3128 3128 3128 3129 3129 3130 3130 3130 3131 3131 3131 3131 3131 3131 3131 3131 3131 3132
3076 3078 3080 3082 3084 3086 3087 3089 3091 3092 3094 3096 3097 3099 3100 3102 3103 3104 3105 3106 3107 3108 3109 3110 3111 3112 3113 3114 3115 3116 3116 3117 3118 3119 3119 3120 3121 3121 3122 3122 3123 3123 3124 3124 3124 3125 3125 3125 3126 3126 3126 3126 3126 3126 3126 3127 3127 3128 3128 3128 3129 3129 3129 3129 3130 3130 3130 3130 3130
3074 3076 3078 3080 3081 3083 3085 3086 3088 3090 3091 3093 3095 3097 3098 3100 3101 3101 3103 3104 3105 3106 3107 3108 3109 3110 3111 3112 3113 3114 3115 3116 3116 3117 3117 3118 3119 3119 3120 3121 3121 3121 3122 3122 3123 3123 3123 3124 3124 3124 3124 3125 3125 3125 3125 3125 3125 3125 3126 3126 3126 3127 3127 3127 3127 3127 3128 3128 3127
3071 3073 3075 3077 3079 3081 3082 3084 3086 3087 3089 3091 3093 3095 3096 3097 3098 3100 3101 3102 3103 3104 3105 3106 3107 3108 3109 3110 3111 3112 3113 3113 3114 3115 3116 3116 3117 3117 3118 3119 3119 3120 3120 3121 3121 3121 3122 3122 3122 3122 3123 3123 3123 3123 3123 3123 3123 3123 3123 3124 3124 3124 3125 3125 3125 3126 3126 3126 3126
3069 3071 3072 3074 3076 3078 3080 3081 3083 3085 3087 3089 3091 3092 3094 3095 3096 3097 3099 3100 3101 3102 3103 3104 3105 3106 3107 3108 3109 3110 3111 3111 3112 3113 3113 3114 3115 3116 3116 3117 3117 3118 3118 3119 3119 3120 3120 3120 3121 3121 3121 3121 3121 3121 3121 3121 3121 3121 3121 3121 3122 3122 3122 3123 3123 3123 3123 3124 3123
3066 3068 3070 3071 3073 3075 3077 3079 3081 3082 3084 3086 3088 3090 3091 3093 3094 3095 3096 3098 3099 3100 3101 3102 3103 3104 3105 3106 3107 3108 3109 3109 3110 3111 3111 3112 3113 3114 3114 3115 3116 3116 3116 3117 3118 3118 3118 3118 3119 3119 3119 3119 3120 3120 3120 3120 3120 3119 3119 3119 3119 3120 3120 3120 3121 3121 3121 3121 3121
3063 3065 3067 3069 3071 3073 3075 3076 3078 3080 3082 3084 3086 3087 3089 3091 3092 3093 3095 3096 3097 3098 3099 3100 3101 3102 3103 3104 3105 3106 3107 3107 3108 3109 3110 3111 3111 3112 3112 3113 3114 3114 3115 3115 3116 3116 3116 3116 3117 3117 3117 3117 3118 3118 3118 3118 3118 3117 3117 3117 3117 3117 3118 3118 3118 3119 3119 3119 3119
3061 3063 3065 3066 3068 3070 3072 3074 3076 3078 3080 3081 3083 3085 3087 3088 3090 3091 3092 3094 3095 3096 3097 3098 3099 3100 3101 3102 3103 3104 3105 3106 3107 3107 3108 3109 3109 3110 3111 3111 3111 3112 3113 3113 3114 3114 3114 3114 3115 3115 3115 3115 3116 3116 3116 3116 3116 3116 3116 3116 3116 3116 3116 3116 3116 3116 3116 3116 3117
3058 3060 3062 3064 3066 3068 3070 3072 3074 3076 3078 3079 3081 3083 3084 3086 3088 3089 3090 3091 3093 3094 3095 3096 3097 3098 3099 3100 3101 3102 3103 3104 3105 3106 3106 3106 3107 3108 3108 3109 3109 3110 3111 3111 3111 3112 3112 3112 3112 3113 3113 3113 3113 3114 3114 3114 3114 3114 3114 3114 3113 3113 3113 3113 3113 3114 3114 3114 3114
3056 3058 3060 3062 3064 3066 3068 3070 3072 3074 3076 3077 3079 3081 3082 3084 3086 3087 3088 3090 3091 3092 3093 3094 3095 3096 3097 3098 3099 3100 3101 3102 3102 3103 3104 3105 3105 3106 3106 3107 3107 3108 3108 3109 3109 3110 3110 3110 3110 3111 3111 3111 3111 3111 3111 3111 3112 3111 3111 3111 3111 3111 3111 3111 3111 3111 3111 3111 3111
3054 3056 3058 3060 3062 3064 3066 3068 3069 3071 3073 3075 3076 3078 3080 3081 3083 3085 3086 3087 3088 3090 3091 3092 3093 3094 3095 3096 3097 3098 3099 3100 3100 3101 3101 3102 3103 3103 3104 3104 3105 3105 3106 3106 3107 3107 3107 3108 3108 3108 3108 3109 3109 3109 3109 3109 3109 3109 3109 3109 3109 3109 3109 3109 3109 3109 3109 3109 3109
3052 3054 3056 3058 3060 3061 3063 3065 3067 3069 3070 3072 3074 3076 3077 3079 3081 3082 3083 3085 3086 3087 3088 3090 3091 3092 3093 3094 3095 3096 3096 3097 3098 3099 3099 3100 3100 3101 3101 3102 3102 3103 3103 3104 3104 3105 3105 3105 3106 3106 3106 3106 3106 3106 3107 3107 3107 3107 3107 3107 3107 3107 3107 3106 3106 3106 3106 3106 3106
3050 3052 3053 3055 3057 3059 3060 3062 3064 3066 3067 3069 3071 3073 3074 3076 3078 3079 3081 3082 3083 3084 3086 3087 3088 3089 3090 3091 3092 3093 3094 3095 3096 3096 3097 3097 3098 3098 3099 3099 3100 3101 3101 3101 3102 3102 3102 3103 3103 3103 3104 3104 3104 3104 3104 3104 3104 3104 3105 3104 3104 3104 3104 3104 3104 3104 3104 3104 3104
3047 3049 3051 3052 3054 3056 3057 3059 3061 3063 3065 3066 3068 3070 3072 3073 3075 3076 3078 3079 3080 3082 3083 3084 3085 3086 3087 3088 3089 3090 3091 3092 3093 3093 3094 3095 3095 3096 3096 3097 3097 3098 3098 3099 3099 3100 3100 3100 3101 3101 3101 3101 3101 3101 3101 3102 3102 3102 3102 3102 3102 3102 3102 3102 3102 3102 3102 3101 3101
3045 3047 3048 3050 3052 3053 3055 3057 3059 3061 3062 3064 3066 3067 3069 3071 3072 3074 3075 3076 3077 3079 3080 3081 3082 3083 3085 3086 3086 3087 3088 3089 3090 3091 3091 3092 3092 3093 3094 3094 3095 3095 3096 3096 3096 3097 3097 3097 3098 3098 3098 3098 3099 3099 3099 3099 3099 3099 3099 3099 3099 3099 3099 3099 3099 3099 3099 3099 3099
3043 3044 3046 3048 3049 3051 3053 3055 3056 3058 3060 3061 3063 3065 3066 3068 3069 3071 3072 3073 3075 3076 3077 3078 3079 3081 3081 3083 3084 3085 3086 3086 3087 3088 3088 3089 3090 3090 3091 3091 3092 3092 3093 3093 3094 3094 3094 3095 3095 3095 3095 3096 3096 3096 3096 3096 3096 3096 3096 3096 3097 3097 3097 3097 3096 3096 3096 3096 3096
3040 3042 3044 3046 3047 3049 3050 3052 3054 3055 3057 3059 3060 3062 3064 3065 3066 3068 3069 3071 3072 3073 3074 3075 3076 3078 3079 3080 3081 3082 3083 3084 3084 3085 3086 3086 3087 3087 3088 3089 3089 3089 3090 3090 3091 3091 3091 3092 3092 3092 3093 3093 3093 3093 3093 3093 3094 3094 3094 3094 3094 3094 3094 3094 3094 3094 3094 3094 3093
3038 3040 3041 3043 3045 3046 3048 3049 3051 3052 3054 3056 3058 3059 3061 3062 3063 3065 3066 3067 3069 3070 3071 3072 3074 3075 3076 3077 3078 3079 3080 3081 3081 3082 3083 3083 3084 3085 3085 3086 3086 3086 3087 3087 3088 3088 3088 3089 3089 3090 3090 3090 3090 3090 3091 3091 3091 3091 3091 3091 3091 3091 3091 3091 3091 3091 3091 3091 3091
3036 3037 3039 3041 3042 3044 3045 3047 3048 3050 3051 3053 3055 3056 3057 3059 3060 3062 3063 3065 3066 3067 3068 3070 3071 3072 3073 3074 3075 3076 3077 3077 3078 3079 3080 3080 3081 3081 3082 3082 3083 3083 3084 3084 3085 3085 3086 3086 3086 3086 3087 3087 3087 3087 3087 3088 3088 3088 3088 3088 3088 3088 3088 3088 3088 3088 3088 3088 3088
3033 3035 3036 3038 3039 3041 3043 3044 3046 3047 3049 3050 3051 3053 3054 3056 3057 3059 3060 3062 3063 3064 3066 3067 3068 3069 3070 3071 3072 3073 3073 3074 3075 3076 3076 3077 3078 3078 3079 3079 3080 3080 3081 3081 3082 3082 3082 3083 3083 3083 3084 3084 3084 3084 3084 3085 3085 3085 3085 3085 3085 3085 3085 3085 3085 3085 3085 3085 3085
3031 3032 3033 3035 3036 3038 3040 3041 3043 3044 3046 3047 3049 3050 3051 3053 3054 3056 3057 3059 3060 3061 3062 3063 3064 3066 3066 3067 3068 3069 3070 3071 3072 3072 3073 3074 3074 3075 3076 3076 3076 3077 3077 3078 3079 3079 3079 3080 3080 3080 3081 3081 3081 3081 3081 3081 3081 3082 3082 3082 3082 3082 3082 3082 3082 3082 3082 3082 3082
3028 3029 3031 3032 3034 3035 3037 3038 3040 3041 3043 3044 3046 3047 3048 3050 3051 3052 3054 3055 3056 3057 3059 3060 3061 3062 3063 3064 3065 3066 3066 3067 3068 3069 3070 3071 3071 3071 3072 3073 3073 3074 3074 3075 3075 3076 3076 3076 3077 3077 3077 3077 3078 3078 3078 3078 3078 3078 3079 3079 3079 3079 3079 3079 3079 3079 3079 3079 3078
3025 3026 3028 3029 3031 3032 3034 3036 3037 3038 3040 3041 3043 3044 3045 3046 3048 3049 3050 3051 3053 3054 3055 3056 3057 3058 3059 3060 3061 3062 3063 3064 3065 3065 3066 3067 3067 3068 3069 3069 3070 3071 3071 3072 3072 3072 3073 3073 3074 3074 3074 3074 3074 3075 3075 3075 3075 3075 3076 3076 3076 3076 3076 3076 3076 3076 3076 3076 3075
3022 3024 3025 3026 3028 3029 3031 3032 3034 3036 3037 3038 3039 3041 3042 3043 3045 3046 3047 3048 3050 3051 3051 3052 3054 3055 3056 3056 3057 3058 3059 3060 3061 3062 3062 3063 3064 3065 3066 3066 3067 3067 3068 3068 3069 3069 3070 3070 3070 3071 3071 3071 3071 3071 3071 3072 3072 3072 3072 3072 3072 3072 3072 3072 3072 3072 3072 3072 3072
3020 3021 3022 3024 3025 3026 3028 3029 3031 3032 3034 3035 3036 3037 3039 3040 3041 3042 3044 3045 3046 3047 3048 3049 3050 3051 3052 3052 3054 3055 3056 3056 3057 3058 3059 3060 3061 3061 3062 3063 3063 3064 3065 3065 3065 3066 3066 3066 3067 3067 3067 3068 3068 3068 3068 3068 3069 3069 3069 3069 3069 3069 3069 3069 3069 3069 3069 3069 3069
3017 3019 3020 3021 3022 3024 3025 3026 3028 3029 3030 3031 3033 3034 3036 3036 3038 3039 3040 3041 3042 3043 3044 3045 3046 3047 3048 3049 3051 3052 3053 3054 3054 3055 3056 3057 3058 3058 3059 3059 3060 3061 3061 3062 3062 3062 3063 3063 3064 3064 3064 3064 3064 3065 3065 3065 3065 3066 3066 3066 3066 3066 3066 3066 3066 3066 3066 3066 3066
3014 3016 3017 3018 3019 3021 3022 3023 3024 3026 3027 3028 3030 3031 3032 3033 3034 3036 3037 3038 3039 3040 3041 3042 3043 3044 3045 3046 3048 3049 3050 3051 3051 3052 3053 3054 3054 3055 3056 3056 3057 3057 3058 3058 3059 3059 3059 3060 3060 3061 3061 3061 3061 3061 3061 3062 3062 3062 3062 3062 3063 3063 3062 3063 3062 3062 3062 3062 3062
3011 3012 3014 3015 3016 3017 3018 3020 3021 3022 3024 3025 3026 3027 3029 3030 3031 3032 3033 3035 3036 3036 3037 3039 3040 3041 3042 3043 3045 3045 3046 3047 3048 3049 3050 3050 3051 3052 3052 3053 3053 3054 3055 3055 3055 3056 3056 3056 3057 3057 3057 3057 3057 3058 3058 3058 3059 3059 3059 3059 3059 3059 3059 3059 3059 3059 3059 3058 3058
3008 3009 3011 3011 3013 3014 3015 3016 3018 3019 3020 3022 3023 3024 3026 3027 3028 3029 3030 3031 3032 3033 3034 3036 3037 3038 3039 3040 3041 3042 3043 3044 3045 3046 3046 3047 3047 3048 3049 3050 3050 3051 3051 3052 3052 3052 3053 3053 3053 3054 3054 3054 3054 3054 3055 3055 3055 3056 3056 3056 3056 3056 3056 3055 3056 3056 3055 3055 3055
3004 3006 3007 3008 3010 3011 3012 3013 3015 3016 3017 3019 3020 3021 3022 3024 3025 3026 3027 3028 3029 3030 3031 3032 3033 3035 3036 3037 3038 3038 3039 3040 3041 3042 3043 3043 3044 3045 3046 3046 3047 3047 3048 3048 3049 3049 3049 3050 3050 3050 3051 3051 3051 3051 3051 3052 3052 3052 3052 3052 3052 3052 3052 3052 3052 3052 3052 3051 3051